When you browse on this site, cookies collect data to enhance your experience and personalize the content and advertising you see.
Visit our Privacy Policy to learn more. By continuing to use the site, you agree to this use of cookies and data.
  • In Hungary
  • List of Countries
  • For 7 days
  • Water Temperature
  • Satellite Maps
  • Weather Map
  • News
  • Weather Widgets
  • user-avatar
    Login

    Hourly Weather San Carlos

    Today, 16 January, Wednesday

    Time Temperature Precipitation Wind Pressure Humidity
    00:00 +25°C° 0 mm 1 mps 746 mmHg 77%
    01:00 +24°C° 0 mm 1 mps 746 mmHg 78%
    02:00 +24°C° 0 mm 1 mps 746 mmHg 80%
    03:00 +24°C° 0 mm 1 mps 746 mmHg 81%
    04:00 +23°C° 0 mm 1 mps 746 mmHg 83%
    05:00 +24°C° 0 mm 1 mps 746 mmHg 80%
    06:00 +24°C° 0 mm 1 mps 747 mmHg 78%
    07:00 +25°C° 0 mm 1 mps 747 mmHg 75%
    08:00 +27°C° 0 mm 1 mps 747 mmHg 65%
    09:00 +30°C° 0 mm 2 mps 748 mmHg 55%
    10:00 +34°C° 0 mm 2 mps 748 mmHg 44%
    11:00 +35°C° 0 mm 2 mps 747 mmHg 41%
    12:00 +36°C° 0 mm 2 mps 746 mmHg 38%
    13:00 +37°C° 0 mm 2 mps 745 mmHg 34%
    14:00 +37°C° 0 mm 2 mps 745 mmHg 34%
    15:00 +37°C° 0 mm 2 mps 744 mmHg 35%
    16:00 +37°C° 0 mm 2 mps 744 mmHg 35%
    17:00 +35°C° 0 mm 2 mps 744 mmHg 41%
    18:00 +32°C° 0 mm 1 mps 744 mmHg 48%
    19:00 +29°C° 0 mm 1 mps 745 mmHg 54%
    20:00 +29°C° 0 mm 1 mps 745 mmHg 59%
    21:00 +28°C° 0 mm 1 mps 746 mmHg 65%
    22:00 +27°C° 0 mm 2 mps 746 mmHg 70%
    23:00 +27°C° 0 mm 2 mps 746 mmHg 73%

    Tomorrow, 17 January, Thursday

    Time Temperature Precipitation Wind Pressure Humidity
    00:00 +26°C° 0 mm 2 mps 746 mmHg 76%
    01:00 +26°C° 0 mm 1 mps 746 mmHg 80%
    02:00 +26°C° 0 mm 1 mps 746 mmHg 81%
    03:00 +25°C° 0 mm 1 mps 746 mmHg 82%
    04:00 +25°C° 0 mm 1 mps 746 mmHg 83%
    05:00 +25°C° 0 mm 1 mps 746 mmHg 81%
    06:00 +24°C° 0 mm 0 mps 747 mmHg 78%
    07:00 +24°C° 0 mm 0 mps 747 mmHg 76%
    08:00 +29°C° 0 mm 1 mps 747 mmHg 66%
    09:00 +31°C° 0 mm 2 mps 748 mmHg 56%
    10:00 +34°C° 0 mm 2 mps 748 mmHg 45%
    11:00 +36°C° 0 mm 2 mps 747 mmHg 42%
    12:00 +37°C° 0 mm 2 mps 746 mmHg 39%
    13:00 +38°C° 0 mm 2 mps 745 mmHg 36%
    14:00 +37°C° 0 mm 2 mps 744 mmHg 38%
    15:00 +35°C° 0 mm 1 mps 744 mmHg 39%
    16:00 +35°C° 0 mm 1 mps 743 mmHg 40%
    17:00 +33°C° 0 mm 1 mps 744 mmHg 46%
    18:00 +32°C° 0 mm 2 mps 744 mmHg 52%
    19:00 +30°C° 0 mm 2 mps 745 mmHg 57%
    20:00 +29°C° 0 mm 2 mps 745 mmHg 62%
    21:00 +28°C° 0 mm 2 mps 745 mmHg 67%
    22:00 +27°C° 0 mm 1 mps 746 mmHg 72%
    23:00 +27°C° 0 mm 1 mps 745 mmHg 74%

    Day after tomorrow, 18 January, Friday

    Time Temperature Precipitation Wind Pressure Humidity
    00:00 +26°C° 0 mm 1 mps 745 mmHg 77%
    01:00 +26°C° 0 mm 1 mps 745 mmHg 79%
    02:00 +25°C° 0 mm 1 mps 745 mmHg 80%
    03:00 +25°C° 0 mm 1 mps 745 mmHg 82%
    04:00 +25°C° 0 mm 1 mps 745 mmHg 84%
    05:00 +25°C° 0 mm 1 mps 745 mmHg 81%
    06:00 +24°C° 0 mm 0 mps 746 mmHg 79%
    07:00 +24°C° 0 mm 0 mps 746 mmHg 77%
    08:00 +29°C° 0 mm 1 mps 746 mmHg 66%
    09:00 +31°C° 0 mm 2 mps 747 mmHg 56%
    10:00 +34°C° 0 mm 3 mps 747 mmHg 45%
    11:00 +35°C° 0 mm 3 mps 746 mmHg 41%
    12:00 +37°C° 0 mm 3 mps 745 mmHg 38%
    13:00 +38°C° 0 mm 2 mps 744 mmHg 34%
    14:00 +37°C° 0 mm 2 mps 743 mmHg 34%
    15:00 +37°C° 0 mm 2 mps 743 mmHg 34%
    16:00 +37°C° 0 mm 2 mps 742 mmHg 34%
    17:00 +35°C° 0 mm 2 mps 743 mmHg 41%
    18:00 +32°C° 0 mm 2 mps 743 mmHg 49%
    19:00 +30°C° 0 mm 2 mps 744 mmHg 56%
    20:00 +29°C° 0 mm 2 mps 744 mmHg 61%
    21:00 +28°C° 0 mm 2 mps 745 mmHg 67%
    22:00 +27°C° 0 mm 2 mps 745 mmHg 72%
    23:00 +27°C° 0 mm 2 mps 745 mmHg 74%

    19 January, Saturday

    Time Temperature Precipitation Wind Pressure Humidity
    00:00 +26°C° 0 mm 1 mps 745 mmHg 76%
    01:00 +26°C° 0 mm 1 mps 744 mmHg 77%
    02:00 +25°C° 0 mm 1 mps 744 mmHg 79%
    03:00 +25°C° 0 mm 1 mps 744 mmHg 81%
    04:00 +25°C° 0 mm 1 mps 744 mmHg 83%
    05:00 +23°C° 0 mm 0 mps 745 mmHg 81%
    06:00 +24°C° 0 mm 0 mps 746 mmHg 79%
    07:00 +24°C° 0 mm 0 mps 746 mmHg 77%
    08:00 +28°C° 0 mm 1 mps 746 mmHg 66%
    09:00 +31°C° 0 mm 2 mps 747 mmHg 56%
    10:00 +34°C° 0 mm 2 mps 747 mmHg 45%
    11:00 +35°C° 0 mm 2 mps 746 mmHg 41%
    12:00 +36°C° 0 mm 2 mps 745 mmHg 38%
    13:00 +38°C° 0 mm 2 mps 744 mmHg 34%
    14:00 +37°C° 0 mm 2 mps 743 mmHg 34%
    15:00 +37°C° 0 mm 2 mps 743 mmHg 33%
    16:00 +37°C° 0 mm 2 mps 742 mmHg 33%
    17:00 +35°C° 0 mm 2 mps 743 mmHg 40%
    18:00 +32°C° 0 mm 1 mps 743 mmHg 47%
    19:00 +30°C° 0 mm 1 mps 744 mmHg 54%
    20:00 +29°C° 0 mm 1 mps 744 mmHg 59%
    21:00 +28°C° 0 mm 1 mps 745 mmHg 65%
    22:00 +27°C° 0 mm 2 mps 745 mmHg 71%
    23:00 +27°C° 0 mm 2 mps 745 mmHg 73%

    20 January, Sunday

    Time Temperature Precipitation Wind Pressure Humidity
    00:00 +26°C° 0 mm 2 mps 745 mmHg 76%
    01:00 +26°C° 0 mm 2 mps 745 mmHg 79%
    02:00 +26°C° 0 mm 1 mps 744 mmHg 80%
    03:00 +25°C° 0 mm 1 mps 744 mmHg 82%
    04:00 +25°C° 0 mm 1 mps 744 mmHg 83%
    05:00 +25°C° 0 mm 1 mps 745 mmHg 81%
    06:00 +24°C° 0 mm 0 mps 746 mmHg 79%
    07:00 +24°C° 0 mm 0 mps 746 mmHg 77%
    08:00 +28°C° 0 mm 1 mps 746 mmHg 66%
    09:00 +31°C° 0 mm 2 mps 747 mmHg 55%
    10:00 +34°C° 0 mm 3 mps 747 mmHg 44%
    11:00 +35°C° 0 mm 3 mps 746 mmHg 41%
    12:00 +36°C° 0 mm 3 mps 745 mmHg 38%
    13:00 +37°C° 0 mm 3 mps 744 mmHg 34%
    14:00 +37°C° 0 mm 2 mps 743 mmHg 34%
    15:00 +37°C° 0 mm 2 mps 743 mmHg 34%
    16:00 +37°C° 0 mm 2 mps 742 mmHg 33%
    17:00 +34°C° 0 mm 1 mps 743 mmHg 39%
    18:00 +32°C° 0 mm 1 mps 743 mmHg 45%
    19:00 +30°C° 0 mm 1 mps 744 mmHg 50%
    20:00 +29°C° 0 mm 1 mps 744 mmHg 56%
    21:00 +28°C° 0 mm 2 mps 745 mmHg 63%
    22:00 +27°C° 0 mm 2 mps 745 mmHg 69%
    23:00 +27°C° 0 mm 2 mps 745 mmHg 72%

    21 January, Monday

    Time Temperature Precipitation Wind Pressure Humidity
    00:00 +26°C° 0 mm 2 mps 745 mmHg 74%
    01:00 +26°C° 0 mm 1 mps 745 mmHg 77%
    02:00 +26°C° 0 mm 1 mps 745 mmHg 78%
    03:00 +25°C° 0 mm 1 mps 745 mmHg 79%
    04:00 +25°C° 0 mm 1 mps 745 mmHg 80%
    05:00 +25°C° 0 mm 1 mps 745 mmHg 78%
    06:00 +26°C° 0 mm 1 mps 746 mmHg 76%
    07:00 +26°C° 0 mm 1 mps 746 mmHg 74%
    08:00 +29°C° 0 mm 1 mps 747 mmHg 63%
    09:00 +32°C° 0 mm 2 mps 747 mmHg 52%
    10:00 +36°C° 0 mm 2 mps 747 mmHg 41%
    11:00 +37°C° 0 mm 2 mps 746 mmHg 38%
    12:00 +36°C° 0 mm 1 mps 745 mmHg 35%
    13:00 +37°C° 0 mm 1 mps 744 mmHg 33%
    14:00 +36°C° 0 mm 1 mps 744 mmHg 36%
    15:00 +35°C° 0 mm 1 mps 743 mmHg 39%
    16:00 +34°C° 0 mm 1 mps 743 mmHg 42%
    17:00 +32°C° 0 mm 2 mps 743 mmHg 49%
    18:00 +31°C° 0 mm 3 mps 744 mmHg 55%
    19:00 +29°C° 0 mm 3 mps 744 mmHg 62%
    20:00 +28°C° 0 mm 3 mps 745 mmHg 64%
    21:00 +27°C° 0 mm 3 mps 745 mmHg 66%
    22:00 +27°C° 0 mm 3 mps 745 mmHg 68%
    23:00 +26°C° 0 mm 2 mps 745 mmHg 68%
    Show more